STARLINK-32769, 62602

Orbit data source: Space-Track

STARLINK-32769, 62602 is a payload satellite owned by SpaceX/Seattle (US) in LEO that was launched on Mon, 13 Jan 2025 UTC via an FALCON 9 launch vehicle from the Air Force Eastern Test Range (AFETR). Payload-class satellites include a variety of spacecraft equipped with specific instruments for various scientific and technological missions. These include communications satellites like Starlink; space stations such as the ISS; scientific satellites like the Hubble; Earth observation satellites from companies like Planet Labs, Umbra, and HawkEye 360; GPS; miniature CubeSats for education and research; and military/defense satellites.

Loading next visibility...
Identifier
62602, 2025-008R
Orbit
LEO
Country
Flag of USUS
Related business
Manufacturer
SpaceX/Seattle
Mission
Operational Commercial Communications
Bus & Motor
STARLINK V2M, Unknown motor
Mass
730 kg wet, ~700 kg dry
Launch date (UTC)
2025-01-13 (8 months ago)
Launch vehicle
FALCON 9
Launch site
Air Force Eastern Test Range (AFETR)
Object type
Payload
Rocket body
Debris
Shape & HBR
Box + 2 Pan, 14.5 m
Radar Cross Section
33.884 m², Large (>1 m²)

Expand to show TLE details & history
Last TLE update: 18 hours ago

TLE from 18 hours ago
0 STARLINK-32769
1 62602U 25008R   25258.18026858  .00048167  00000-0  17465-2 0  9992
2 62602  42.9996 189.0026 0000706 265.7895  94.2876 15.27616969 38782
Epoch: 2025-09-15T04:19Z
TLE epoch observation values (Epoch: 2025-09-15T04:19:35.205Z)
Latitude
-0.00001°
Longitude
129.71728°
Altitude
482.75 km
Speed
7.626 km/s
True Right ascension
12h 36m 00s
True Declination
0° 00' 00"
Sunlit
Object was in daylight at epoch
Visualization orbit readout
Latitude
Unknown
Longitude
Unknown
Altitude
Unknown
Speed
Unknown
Apparent Right ascension
Unknown
Apparent Declination
Unknown
Sunlit
N/A
Visualization observer readout
Local Sidereal Time
15:20:24
Azimuth
Unknown
Elevation
Unknown
Doppler factor
Unknown
Orbital elements
Apogee altitude
485.368 km
Perigee altitude
484.399 km
Semi-major axis
6,863.021 km
Eccentricity
0.00007
Inclination
42.9996°
RAAN
189.0026°
Arg. of periapsis
265.7895°
True anomaly
94.29567°
Mean anomaly
94.2876°
Eccentric anomaly
94.29163°
Mean motion
3.81742 °/min
Orbital period
94.3 mins
BSTAR
0.0017465
Loading maneuver chart data...
Computing Atmospheric mass density...
Loading historical data...
Loading historical data...
Loading historical data...
Loading historical data...
Loading historical data...
Loading historical data...
Loading historical data...

Documentation

Showing up to 5 results
|